Date String (YYYY-MM-DD hh:mm:ss) UTC,Instrument flags,Ambient pressure (hPa),Sample flow (lpm),Bypass flow (lpm),Sample temperature (°C),Ambient temperature (°C),ASC tube jacket temperature (°C),LED temperature (°C),Box temperature (°C),Sample RH (%),Span deviation,Mass concentration (μg/m³),Mass concentration (μg/m³),Mass concentration (μg/m³)
DateTimeUTC,F1_M11,P_M11,Q1_M11,Q2_M11,T1_M11,T2_M11,T3_M11,T4_M11,T5_M11,U1_M11,ZSPAN_M11,X0_M11,X2_M11,X1_M11
2022-08-13 16:00:00,,0832.6,4.99,0.00,30.0,27.3,00.0,38.3,31.2,33.9,0000.0,0010.71,0005.28,0004.66
2022-08-13 16:01:00,,0832.5,5.01,0.00,29.9,27.3,00.0,38.3,31.1,34.1,0000.0,0010.96,0005.27,0004.64
2022-08-13 16:02:00,,0832.6,4.99,0.00,29.8,27.4,00.0,38.3,31.1,34.2,0000.0,0011.68,0005.26,0004.61
2022-08-13 16:03:00,,0832.5,5.01,0.00,29.8,27.6,00.0,38.3,31.2,34.3,0000.0,0011.56,0005.25,0004.60
2022-08-13 16:04:00,,0832.5,5.00,0.00,29.8,27.7,00.0,38.4,31.2,34.3,0000.0,0011.35,0005.26,0004.59
2022-08-13 16:05:00,,0832.5,4.99,0.00,29.8,27.9,00.0,38.4,31.3,34.6,0000.0,0011.26,0005.26,0004.60
2022-08-13 16:06:00,,0832.5,5.00,0.00,29.8,28.0,00.0,38.4,31.3,34.7,0000.0,0010.99,0005.28,0004.61
2022-08-13 16:07:00,,0832.5,5.01,0.00,29.8,28.2,00.0,38.4,31.4,34.2,0000.0,0010.97,0005.34,0004.63
2022-08-13 16:08:00,,0832.5,5.00,0.00,29.8,28.3,00.0,38.4,31.4,34.4,0000.0,0011.02,0005.37,0004.64
2022-08-13 16:09:00,,0832.5,4.99,0.00,29.9,28.4,00.0,38.4,31.5,34.6,0000.0,0011.18,0005.39,0004.65
2022-08-13 16:10:00,,0832.5,5.00,0.00,29.9,28.2,00.0,38.4,31.4,34.5,0000.0,0011.43,0005.42,0004.66
2022-08-13 16:11:00,,0832.5,4.99,0.00,29.8,27.7,00.0,38.4,31.2,34.5,0000.0,0011.39,0005.41,0004.66
2022-08-13 16:12:00,,0832.5,5.02,0.00,29.7,27.3,00.0,38.4,31.2,34.8,0000.0,0011.38,0005.41,0004.66
2022-08-13 16:13:00,,0832.5,4.99,0.00,29.7,27.3,00.0,38.3,31.1,35.2,0000.0,0010.71,0005.45,0004.66
2022-08-13 16:14:00,,0832.4,4.99,0.00,29.8,27.4,00.0,38.3,31.2,35.3,0000.0,0010.66,0005.44,0004.65
2022-08-13 16:15:00,,0832.4,5.00,0.00,30.1,27.5,00.0,38.3,31.4,34.7,0000.0,0010.53,0005.39,0004.63
2022-08-13 16:16:00,,0832.4,4.99,0.00,30.3,27.7,00.0,38.3,31.5,33.9,0000.0,0011.00,0005.36,0004.60
2022-08-13 16:17:00,,0832.4,5.00,0.00,30.4,27.9,00.0,38.4,31.5,34.0,0000.0,0011.19,0005.36,0004.58
2022-08-13 16:18:00,,0832.4,5.01,0.00,30.5,28.0,00.0,38.4,31.5,33.7,0000.0,0010.36,0005.34,0004.55
2022-08-13 16:19:00,,0832.4,5.01,0.00,30.5,28.2,00.0,38.5,31.6,33.8,0000.0,0010.29,0005.32,0004.54
2022-08-13 16:20:00,,0832.4,5.00,0.00,30.6,28.3,00.0,38.6,31.6,33.4,0000.0,0010.58,0005.37,0004.53
2022-08-13 16:21:00,,0832.4,4.99,0.00,30.6,28.4,00.0,38.6,31.7,33.6,0000.0,0010.90,0005.39,0004.52
2022-08-13 16:22:00,,0832.3,5.01,0.00,30.6,28.1,00.0,38.6,31.5,33.6,0000.0,0011.21,0005.38,0004.50
2022-08-13 16:23:00,,0832.3,4.99,0.00,30.5,27.5,00.0,38.6,31.3,33.5,0000.0,0011.48,0005.40,0004.50
2022-08-13 16:24:00,,0832.3,5.00,0.00,30.4,27.3,00.0,38.6,31.3,33.5,0000.0,0011.29,0005.37,0004.49
2022-08-13 16:25:00,,0832.3,5.00,0.00,30.3,27.3,00.0,38.7,31.2,33.9,0000.0,0011.25,0005.35,0004.49
2022-08-13 16:26:00,,0832.4,5.00,0.00,30.2,27.4,00.0,38.7,31.3,33.8,0000.0,0011.45,0005.37,0004.50
2022-08-13 16:27:00,,0832.4,5.01,0.00,30.2,27.6,00.0,38.7,31.3,33.7,0000.0,0011.20,0005.37,0004.50
2022-08-13 16:28:00,,0832.3,5.00,0.00,30.2,27.8,00.0,38.7,31.4,34.1,0000.0,0010.72,0005.35,0004.51
2022-08-13 16:29:00,,0832.3,5.00,0.00,30.2,27.9,00.0,38.7,31.4,34.0,0000.0,0010.77,0005.35,0004.52
2022-08-13 16:30:00,,0832.3,4.99,0.00,30.2,28.1,00.0,38.7,31.5,34.1,0000.0,0011.39,0005.34,0004.53
2022-08-13 16:31:00,,0832.3,4.99,0.00,30.2,28.2,00.0,38.7,31.5,34.0,0000.0,0011.10,0005.28,0004.53
2022-08-13 16:32:00,,0832.3,4.99,0.00,30.2,28.4,00.0,38.7,31.6,34.0,0000.0,0010.51,0005.23,0004.53
2022-08-13 16:33:00,,0832.3,5.01,0.00,30.2,28.1,00.0,38.7,31.5,33.9,0000.0,0010.91,0005.21,0004.55
2022-08-13 16:34:00,,0832.3,5.00,0.00,30.1,27.6,00.0,38.6,31.3,34.0,0000.0,0011.78,0005.23,0004.55
2022-08-13 16:35:00,,0832.4,5.00,0.00,30.0,27.3,00.0,38.6,31.2,34.2,0000.0,0011.96,0005.25,0004.57
2022-08-13 16:36:00,,0832.3,5.00,0.00,29.9,27.3,00.0,38.6,31.1,34.3,0000.0,0012.35,0005.29,0004.57
2022-08-13 16:37:00,,0832.4,4.99,0.00,29.9,27.3,00.0,38.5,31.1,34.4,0000.0,0012.26,0005.30,0004.58
2022-08-13 16:38:00,,0832.3,5.02,0.00,29.8,27.5,00.0,38.5,31.2,34.6,0000.0,0011.96,0005.33,0004.59
2022-08-13 16:39:00,,0832.3,4.99,0.00,29.8,27.7,00.0,38.5,31.2,34.7,0000.0,0012.53,0005.36,0004.61
2022-08-13 16:40:00,,0832.3,5.01,0.00,29.8,27.8,00.0,38.5,31.3,34.7,0000.0,0013.24,0005.37,0004.62
2022-08-13 16:41:00,,0832.2,4.99,0.00,29.8,28.0,00.0,38.5,31.4,35.0,0000.0,0013.28,0005.39,0004.63
2022-08-13 16:42:00,,0832.2,5.00,0.00,29.9,28.2,00.0,38.5,31.5,34.7,0000.0,0013.53,0005.45,0004.63
2022-08-13 16:43:00,,0832.3,5.00,0.00,30.1,28.3,00.0,38.5,31.6,34.2,0000.0,0014.21,0005.46,0004.63
2022-08-13 16:44:00,,0832.3,5.00,0.00,30.1,28.4,00.0,38.5,31.6,34.0,0000.0,0013.80,0005.47,0004.63
2022-08-13 16:45:00,,0832.3,5.01,0.00,30.1,28.0,00.0,38.5,31.4,33.9,0000.0,0012.62,0005.47,0004.65
2022-08-13 16:46:00,,0832.3,4.99,0.00,30.1,27.5,00.0,38.5,31.3,34.1,0000.0,0012.25,0005.48,0004.67
2022-08-13 16:47:00,,0832.2,5.00,0.00,30.0,27.2,00.0,38.5,31.2,34.3,0000.0,0011.99,0005.48,0004.68
2022-08-13 16:48:00,,0832.3,4.99,0.00,29.9,27.3,00.0,38.5,31.2,34.5,0000.0,0012.01,0005.46,0004.69
2022-08-13 16:49:00,,0832.3,5.01,0.00,29.9,27.4,00.0,38.5,31.2,34.6,0000.0,0012.23,0005.48,0004.70
2022-08-13 16:50:00,,0832.3,4.99,0.00,29.9,27.6,00.0,38.5,31.2,34.6,0000.0,0012.44,0005.49,0004.71
2022-08-13 16:51:00,,0832.2,5.00,0.00,29.9,27.7,00.0,38.5,31.3,34.9,0000.0,0012.09,0005.54,0004.71
2022-08-13 16:52:00,,0832.2,5.00,0.00,29.9,27.9,00.0,38.5,31.4,34.7,0000.0,0012.35,0005.56,0004.72
2022-08-13 16:53:00,,0832.2,5.00,0.00,30.0,28.1,00.0,38.5,31.4,34.4,0000.0,0012.75,0005.54,0004.74
2022-08-13 16:54:00,,0832.2,5.00,0.00,30.0,28.2,00.0,38.5,31.5,34.2,0000.0,0012.28,0005.55,0004.76
2022-08-13 16:55:00,,0832.2,5.00,0.00,30.0,28.4,00.0,38.5,31.5,34.7,0000.0,0012.52,0005.62,0004.77
2022-08-13 16:56:00,,0832.2,5.01,0.00,30.0,28.1,00.0,38.5,31.4,34.4,0000.0,0012.81,0005.65,0004.77
2022-08-13 16:57:00,,0832.1,5.01,0.00,30.0,27.5,00.0,38.5,31.2,34.4,0000.0,0013.07,0005.66,0004.78
2022-08-13 16:58:00,,0832.2,4.99,0.00,29.9,27.3,00.0,38.4,31.2,34.7,0000.0,0013.02,0005.68,0004.79
2022-08-13 16:59:00,,0832.2,5.01,0.00,29.9,27.3,00.0,38.4,31.1,34.7,0000.0,0013.59,0005.73,0004.82
